Date String (YYYY-MM-DD hh:mm:ss) UTC,Instrument flags,Ambient pressure (hPa),Sample flow (lpm),Bypass flow (lpm),Sample temperature (°C),Ambient temperature (°C),ASC tube jacket temperature (°C),LED temperature (°C),Box temperature (°C),Sample RH (%),Span deviation,Mass concentration (μg/m³),Mass concentration (μg/m³),Mass concentration (μg/m³)
DateTimeUTC,F1_M11,P_M11,Q1_M11,Q2_M11,T1_M11,T2_M11,T3_M11,T4_M11,T5_M11,U1_M11,ZSPAN_M11,X0_M11,X2_M11,X1_M11
2023-04-26 20:00:00,,0832.1,5.00,0.00,23.9,22.6,00.0,32.2,25.5,24.2,0000.0,0006.15,0003.83,0003.72
2023-04-26 20:01:00,,0831.8,5.00,0.00,23.9,22.6,00.0,32.2,25.5,24.8,0000.0,0005.63,0003.81,0003.70
2023-04-26 20:02:00,,0831.8,5.00,0.00,23.9,22.6,00.0,32.2,25.5,24.7,0000.0,0005.10,0003.79,0003.68
2023-04-26 20:03:00,,0831.9,5.00,0.00,23.9,22.6,00.0,32.2,25.5,23.4,0000.0,0004.99,0003.75,0003.65
2023-04-26 20:04:00,,0831.9,5.00,0.00,23.9,22.6,00.0,32.2,25.4,23.5,0000.0,0004.79,0003.69,0003.59
2023-04-26 20:05:00,,0831.8,5.00,0.00,23.9,22.6,00.0,32.3,25.5,23.6,0000.0,0004.74,0003.65,0003.54
2023-04-26 20:06:00,,0831.8,4.99,0.00,23.9,22.6,00.0,32.3,25.5,23.1,0000.0,0004.53,0003.59,0003.49
2023-04-26 20:07:00,,0831.8,5.00,0.00,23.9,22.6,00.0,32.3,25.4,23.2,0000.0,0004.57,0003.57,0003.48
2023-04-26 20:08:00,,0831.8,5.00,0.00,23.9,22.5,00.0,32.3,25.4,22.8,0000.0,0004.73,0003.58,0003.47
2023-04-26 20:09:00,,0832.0,4.99,0.00,23.9,22.5,00.0,32.3,25.4,22.6,0000.0,0004.72,0003.57,0003.46
2023-04-26 20:10:00,,0832.2,5.00,0.00,23.9,22.4,00.0,32.3,25.4,23.1,0000.0,0004.71,0003.56,0003.45
2023-04-26 20:11:00,,0832.0,5.00,0.00,23.9,22.5,00.0,32.3,25.4,23.3,0000.0,0004.72,0003.56,0003.45
2023-04-26 20:12:00,,0832.0,5.01,0.00,23.9,22.5,00.0,32.3,25.4,23.0,0000.0,0004.72,0003.56,0003.45
2023-04-26 20:13:00,,0832.4,4.99,0.00,23.9,22.5,00.0,32.3,25.5,22.8,0000.0,0004.81,0003.56,0003.44
2023-04-26 20:14:00,,0831.7,4.99,0.00,23.9,22.5,00.0,32.3,25.4,22.7,0000.0,0004.82,0003.57,0003.44
2023-04-26 20:15:00,,0832.1,5.00,0.00,23.9,22.6,00.0,32.3,25.5,23.0,0000.0,0004.82,0003.57,0003.44
2023-04-26 20:16:00,,0831.7,5.01,0.00,23.9,22.6,00.0,32.3,25.5,22.9,0000.0,0004.76,0003.55,0003.43
2023-04-26 20:17:00,,0831.7,5.00,0.00,23.9,22.6,00.0,32.3,25.5,22.9,0000.0,0004.76,0003.55,0003.43
2023-04-26 20:18:00,,0831.7,5.00,0.00,23.9,22.6,00.0,32.3,25.5,23.1,0000.0,0004.71,0003.53,0003.41
2023-04-26 20:19:00,,0831.7,4.99,0.00,23.9,22.6,00.0,32.3,25.5,22.6,0000.0,0004.56,0003.54,0003.43
2023-04-26 20:20:00,,0831.7,5.00,0.00,23.9,22.7,00.0,32.3,25.5,23.0,0000.0,0004.59,0003.55,0003.44
2023-04-26 20:21:00,,0831.7,5.00,0.00,23.9,22.7,00.0,32.3,25.5,22.8,0000.0,0004.65,0003.56,0003.44
2023-04-26 20:22:00,,0831.6,5.01,0.00,23.9,22.7,00.0,32.3,25.5,23.2,0000.0,0004.66,0003.56,0003.44
2023-04-26 20:23:00,,0831.6,4.99,0.00,23.9,22.7,00.0,32.3,25.5,23.4,0000.0,0004.77,0003.60,0003.45
2023-04-26 20:24:00,,0831.6,5.00,0.00,23.9,22.7,00.0,32.3,25.5,23.5,0000.0,0004.93,0003.61,0003.47
2023-04-26 20:25:00,,0831.6,5.00,0.00,24.0,22.7,00.0,32.3,25.5,23.8,0000.0,0005.09,0003.61,0003.47
2023-04-26 20:26:00,,0831.6,5.01,0.00,24.0,22.8,00.0,32.3,25.6,24.4,0000.0,0005.11,0003.60,0003.46
2023-04-26 20:27:00,,0831.6,5.00,0.00,24.0,22.8,00.0,32.3,25.6,23.5,0000.0,0005.23,0003.60,0003.45
2023-04-26 20:28:00,,0831.6,4.99,0.00,24.0,22.8,00.0,32.3,25.6,23.0,0000.0,0005.25,0003.60,0003.44
2023-04-26 20:29:00,,0831.5,5.01,0.00,24.0,22.8,00.0,32.3,25.5,23.3,0000.0,0005.25,0003.60,0003.43
2023-04-26 20:30:00,,0831.5,5.00,0.00,24.0,22.7,00.0,32.3,25.5,24.0,0000.0,0005.20,0003.57,0003.40
2023-04-26 20:31:00,,0831.5,5.00,0.00,24.0,22.7,00.0,32.3,25.5,23.3,0000.0,0005.18,0003.55,0003.37
2023-04-26 20:32:00,,0831.5,5.01,0.00,24.0,22.7,00.0,32.4,25.5,24.4,0000.0,0005.08,0003.51,0003.35
2023-04-26 20:33:00,,0831.5,5.01,0.00,24.0,22.7,00.0,32.4,25.5,23.4,0000.0,0005.15,0003.50,0003.34
2023-04-26 20:34:00,,0831.4,5.00,0.00,24.0,22.7,00.0,32.4,25.5,23.0,0000.0,0005.14,0003.46,0003.33
2023-04-26 20:35:00,,0831.4,5.01,0.00,24.0,22.7,00.0,32.4,25.5,23.2,0000.0,0004.92,0003.45,0003.32
2023-04-26 20:36:00,,0831.4,4.99,0.00,24.0,22.7,00.0,32.4,25.6,23.8,0000.0,0004.69,0003.44,0003.32
2023-04-26 20:37:00,,0831.4,4.99,0.00,24.0,22.7,00.0,32.4,25.6,23.3,0000.0,0004.72,0003.45,0003.33
2023-04-26 20:38:00,,0831.4,5.00,0.00,24.0,22.8,00.0,32.4,25.6,23.2,0000.0,0004.60,0003.45,0003.34
2023-04-26 20:39:00,,0831.4,5.00,0.00,24.0,22.8,00.0,32.4,25.6,22.9,0000.0,0004.75,0003.49,0003.37
2023-04-26 20:40:00,,0831.4,5.00,0.00,24.0,22.7,00.0,32.4,25.5,23.0,0000.0,0004.80,0003.53,0003.42
2023-04-26 20:41:00,,0831.3,5.01,0.00,24.0,22.7,00.0,32.4,25.5,22.9,0000.0,0004.78,0003.55,0003.44
2023-04-26 20:42:00,,0831.3,5.00,0.00,24.0,22.7,00.0,32.4,25.5,23.3,0000.0,0004.81,0003.57,0003.46
2023-04-26 20:43:00,,0831.3,5.00,0.00,24.0,22.7,00.0,32.4,25.6,22.7,0000.0,0004.87,0003.60,0003.48
2023-04-26 20:44:00,,0831.3,4.98,0.00,24.0,22.7,00.0,32.4,25.6,23.7,0000.0,0004.77,0003.60,0003.48
2023-04-26 20:45:00,,0831.3,5.00,0.00,24.0,22.8,00.0,32.4,25.6,23.4,0000.0,0005.46,0003.60,0003.48
2023-04-26 20:46:00,,0831.3,5.01,0.00,24.0,22.7,00.0,32.4,25.6,23.0,0000.0,0006.04,0003.61,0003.48
2023-04-26 20:47:00,,0831.3,5.00,0.00,24.0,22.8,00.0,32.4,25.6,23.9,0000.0,0006.06,0003.62,0003.49
2023-04-26 20:48:00,,0831.3,5.01,0.00,24.0,22.8,00.0,32.4,25.6,23.2,0000.0,0006.11,0003.62,0003.49
2023-04-26 20:49:00,,0831.3,4.99,0.00,24.0,22.8,00.0,32.4,25.5,23.0,0000.0,0006.04,0003.61,0003.48
2023-04-26 20:50:00,,0831.3,4.99,0.00,24.0,22.7,00.0,32.4,25.5,23.0,0000.0,0005.92,0003.58,0003.47
2023-04-26 20:51:00,,0831.3,5.01,0.00,24.0,22.7,00.0,32.4,25.5,23.1,0000.0,0005.89,0003.54,0003.44
2023-04-26 20:52:00,,0831.3,5.01,0.00,24.0,22.7,00.0,32.4,25.5,23.4,0000.0,0005.85,0003.52,0003.42
2023-04-26 20:53:00,,0831.2,5.00,0.00,24.0,22.7,00.0,32.4,25.5,22.9,0000.0,0005.90,0003.53,0003.43
2023-04-26 20:54:00,,0831.3,4.98,0.00,24.0,22.7,00.0,32.4,25.5,22.9,0000.0,0006.53,0003.55,0003.43
2023-04-26 20:55:00,,0831.2,5.01,0.00,24.0,22.7,00.0,32.4,25.5,22.4,0000.0,0007.12,0003.56,0003.45
2023-04-26 20:56:00,,0831.2,5.00,0.00,24.0,22.6,00.0,32.4,25.5,22.0,0000.0,0006.67,0003.57,0003.47
2023-04-26 20:57:00,,0831.2,5.01,0.00,24.0,22.6,00.0,32.4,25.5,22.7,0000.0,0005.81,0003.57,0003.47
2023-04-26 20:58:00,,0831.2,4.99,0.00,24.0,22.6,00.0,32.4,25.5,23.1,0000.0,0005.83,0003.57,0003.47
2023-04-26 20:59:00,,0831.2,4.99,0.00,24.0,22.6,00.0,32.4,25.5,23.4,0000.0,0005.79,0003.58,0003.48
